Location: Kumla
(59.1265°N, 15.1401°E)
Time: 17:47:15
(UTC+01:00)

Altair - Pass Details

Date: 05 December 2023
Orbit: 1501 x 1682 km, 47.2° (Epoch: 25 February)

Event Time Altitude Azimuth Distance (km) Brightness Sun altitude
Rises 12:13:54 0° 264° (W) 4,749 10.2 8.4°
Reaches altitude 10° 12:17:17 10° 257° (WSW) 3,740 9.8 8.3°
Maximum altitude 12:25:34 37° 195° (SSW) 2,209 9.6 8.2°
Drops below altitude 10° 12:33:40 10° 133° (SE) 3,655 10.0 8.0°
Sets 12:36:57 0° 125° (SE) 4,630 10.4 7.9°
